Location: Malvern Link
(52.1333°N, 2.3000°W)
Time: 16:32:35
(UTC+00:00)

SPROUT - Pass Details

Date: 01 July 2022
Orbit: 588 x 598 km, 97.9° (Epoch: 09 August)

Event Time Altitude Azimuth Distance (km) Brightness Sun altitude
Exits shadow 01:58:07 13° 231° (SW) 1,702 ? -11.3°
Maximum altitude 02:00:19 19° 269° (W) 1,416 ? -11.2°
Drops below altitude 10° 02:03:22 10° 316° (NW) 1,928 ? -11.0°
Sets 02:06:04 0° 334° (NNW) 2,836 ? -10.8°
